EW7502 Weather Reports


time (UTC)temp
C
wind
direction
speed
KPH
gust
KPH
rain 1hr
cm
rain 24hr
cm
rain mn
cm
humidity
%
barometer
mb
20260503191510 15 225 0.0 0.0 0.00 0.00 0.00 36 1011.4
20260503190008 15 196 0.0 0.0 0.00 0.00 0.00 34 1011.4
20260503184507 15 183 0.0 0.0 0.00 0.00 0.00 36 1011.4
20260503183004 13 178 0.0 0.0 0.00 0.00 0.00 40 1011.8
20260503181502 13 269 0.0 0.0 0.00 0.00 0.00 38 1011.8
20260503180112 13 153 0.0 0.0 0.00 0.00 0.00 39 1011.9
20260503174559 13 238 0.0 0.0 0.00 0.00 0.00 41 1011.9
20260503173101 12 222 0.0 0.0 0.00 0.00 0.00 40 1012.2
20260503171559 12 201 0.0 0.0 0.00 0.00 0.00 44 1012.3
20260503081538 5 26 0.0 0.0 0.00 0.00 0.00 71 1010.2
20260503071536 6 355 0.0 0.0 0.00 0.00 0.00 72 1010.1
20260503054522 7 344 0.0 0.0 0.00 0.00 0.00 68 1010.5
20260503053019 7 33 0.0 0.0 0.00 0.00 0.00 68 1010.5
20260503051524 7 290 0.0 0.0 0.00 0.00 0.00 73 1010.6
20260503050017 7 290 0.0 0.0 0.00 0.00 0.00 71 1010.6
20260503044524 7 290 0.0 0.0 0.00 0.00 0.00 71 1010.8
20260503043013 7 290 0.0 0.0 0.00 0.00 0.00 74 1010.9
20260503041511 6 63 0.0 0.0 0.00 0.00 0.00 74 1010.8
20260503040008 7 53 0.0 0.0 0.00 0.00 0.00 77 1010.9
20260503034508 7 53 0.0 0.0 0.00 0.00 0.00 76 1010.9
20260503033007 7 53 0.0 0.0 0.00 0.00 0.00 74 1010.8
20260503031506 7 53 0.0 0.0 0.00 0.00 0.00 74 1010.8
20260503030006 7 53 0.0 0.0 0.00 0.00 0.00 70 1010.9
20260503024506 8 53 0.0 0.0 0.00 0.00 0.00 69 1010.9
20260503023020 8 53 0.0 0.0 0.00 0.00 0.00 68 1010.9
20260503021504 8 174 0.0 0.0 0.00 0.00 0.00 66 1011.0
20260503020005 8 80 0.0 0.0 0.00 0.00 0.00 67 1010.8
20260503014507 9 238 0.0 0.0 0.00 0.00 0.00 67 1010.9
20260503013003 10 238 0.0 0.0 0.00 0.00 0.00 66 1010.7
20260503011506 10 238 0.0 0.0 0.00 0.00 0.00 64 1010.9
20260503010002 10 238 0.0 0.0 0.00 0.00 0.00 60 1010.6
20260503004504 10 238 0.0 0.0 0.00 0.00 0.00 59 1010.4
20260503003002 11 227 0.0 0.0 0.00 0.00 0.00 59 1010.3
20260503001601 11 227 0.0 0.0 0.00 0.00 0.00 54 1010.1
20260503000111 12 227 0.0 0.0 0.00 0.00 0.00 55 1010.2
20260502234600 12 270 0.0 0.0 0.00 0.00 0.00 47 1010.0
20260502233102 13 223 0.0 0.0 0.00 0.00 0.00 47 1010.0
20260502231607 13 115 0.0 0.0 0.00 0.00 0.00 43 1010.0
20260502230116 14 278 0.0 0.0 0.00 0.00 0.00 49 1009.8
20260502224558 14 278 0.0 0.0 0.00 0.00 0.00 43 1009.8
20260502223058 15 138 0.0 0.0 0.00 0.00 0.00 42 1009.7
20260502221556 15 200 0.0 0.0 0.00 0.00 0.00 38 1009.6
20260502220056 15 205 0.0 0.0 0.00 0.00 0.00 37 1009.7
20260502214555 16 266 0.0 0.0 0.00 0.00 0.00 37 1009.7
20260502213054 15 243 0.0 0.0 0.00 0.00 0.00 39 1009.7
20260502211556 16 320 0.0 0.0 0.00 0.00 0.00 38 1009.5
20260502210052 16 206 0.0 0.0 0.00 0.00 0.00 41 1009.3
20260502204553 16 355 0.0 0.0 0.00 0.00 0.00 40 1009.4
20260502203050 15 51 0.0 0.0 0.00 0.00 0.00 42 1009.5
20260502201548 15 342 0.0 0.0 0.00 0.00 0.00 42 1009.6
20260502200047 15 72 0.0 0.0 0.00 0.00 0.00 40 1009.8
20260502194544 16 84 0.0 0.0 0.00 0.00 0.00 39 1010.0
20260502193045 16 331 0.0 0.0 0.00 0.00 0.00 37 1010.1